Regional Weather Roundup
Issued by NWS Jackson, KY

Home | Current Version | Previous Version | Graphics & Text | Print | Product List | Glossary On
Versions: 1 2 3 4 5 6 7 8 9 10 11 12 13 14 15 16 17 18 19 20 21 22 23 24 25 26 27 28 29 30 31 32 33 34 35 36 37 38 39 40 41 42 43 44 45 46 47 48 49 50
000
ASUS43 KJKL 241310
RWRJKL

EAST KENTUCKY HOURLY WEATHER ROUNDUP
NATIONAL WEATHER SERVICE JACKSON KY
900 AM EDT FRI MAR 24 2017

NOTE: "FAIR" INDICATES FEW OR NO CLOUDS BELOW 12,000 FEET WITH
NO SIGNIFICANT WEATHER AND/OR OBSTRUCTIONS TO VISIBILITY.

* THESE REPORTS ARE NOT UNDER NWS QUALITY CONTROL AND MAY NOT
  REPORT WEATHER SUCH AS PRECIPITATION AND FOG.

KYZ079-080-083-085-087-088-110-112-115-119-120-241400
...EASTERN KENTUCKY...

CITY           SKY/WX    TMP DP  RH WIND       PRES   REMARKS
JACKSON        SUNNY     57  41  55 S5        30.29R
LONDON         MOSUNNY   58  39  49 S12       30.30S
SOMERSET*      MOSUNNY   55  41  58 S12G18    30.31R
MONTICELLO*    SUNNY     59  45  59 VRB6G17   30.31R
WILLIAMSBURG*  SUNNY     57  41  54 SE8       30.31S
MIDDLESBORO*   PTSUNNY   54  36  51 S3        30.37S
HARLAN APT*    MOSUNNY   52  34  50 E5        30.36R
PIKE CO APT*   CLOUDY    55  36  48 S8        30.30S
BIG SANDY APT* CLOUDY    56  36  47 S7        30.30R
MOREHEAD APT*  CLOUDY    59  41  51 S12       30.27S
ASHLAND*       CLOUDY    54  36  50 SE6       30.26R
$$

KYZ035-036-041-042-044-050-067-078-099-241400
...CENTRAL KENTUCKY...

CITY           SKY/WX    TMP DP  RH WIND       PRES   REMARKS
MT STERLING*   MOSUNNY   57  43  58 SW13G20   30.27R
FLEMING/MASON* CLOUDY    55  43  63 S10       30.26R
DANVILLE*      CLOUDY    55  41  58 S14G21    30.27R
LEXINGTON      CLOUDY    57  41  55 S13       30.24R
FRANKFORT      MOSUNNY   60  42  51 S12       30.22R
LOUISVILLE     MOSUNNY   59  42  53 S12       30.20R
LEBANON*         N/A     57  43  58 S16G22    30.24R
GLASGOW*       CLOUDY    58  45  62 S10       30.24S
BOWLING GREEN  SUNNY     61  47  59 S12G22    30.23R
$$

KYZ091>093-OHZ055-061-077-WVZ005-015-034-035-042-241400
...SOUTHERN OHIO/WEST VIRGINIA...

CITY           SKY/WX    TMP DP  RH WIND       PRES   REMARKS
COVINGTON      PTSUNNY   55  43  63 S10       30.18R
COLUMBUS       CLOUDY    55  38  52 S9        30.21R
DAYTON         CLOUDY    54  41  61 S15       30.18R
WILMINGTON     PTSUNNY   53  42  66 S15       30.20R
HUNTINGTON     CLOUDY    56  33  42 S8        30.27R
CHARLESTON     CLOUDY    57  33  40 S6        30.29R
PINEVILLE*     CLOUDY    46  32  58 MISG      30.40R
BECKLEY        CLOUDY    48  30  49 S7        30.34S
BLUEFIELD      CLOUDY    50  31  48 CALM      30.36S
LOGAN CO APT*  CLOUDY    55  32  41 S6G12     30.31R
$$

VAZ002-007-008-TNZ017-027-036-066-071-241400
...SOUTHWEST VIRGINIA/EAST TENNESSEE...

CITY           SKY/WX    TMP DP  RH WIND       PRES   REMARKS
WISE*          SUNNY     54  34  47 CALM      30.36S
JONESVILLE*    CLOUDY    54  37  54 CALM      30.40R
ABINGDON*      CLOUDY    50  33  53 CALM      30.39S
BRISTOL        MOSUNNY   54  35  48 CALM      30.38S
MORRISTOWN*    CLOUDY    52  36  54 N5        30.37R
SEVIERVILLE*   CLOUDY    46  39  76 CALM      30.37R
KNOXVILLE      CLOUDY    55  40  56 CALM      30.37R
LAFOLLETTE*    CLOUDY    59  41  51 S8        30.38S
OAK RIDGE      CLOUDY    59  39  47 CALM      30.39R
CROSSVILLE     CLOUDY    54  42  64 S9G24     30.35R
NASHVILLE      PTSUNNY   62  49  62 S17       30.26R
$$

...KEY TO REMARKS...
VSB - VISIBILITY IN MILES
WCI - WIND CHILL INDEX
HX  - HEAT INDEX

$$



USA.gov is the U.S. government's official web portal to all federal, state and local government web resources and services.